Find Local Weather

World > North America > United States > Ohio

Coalton, Ohio Regional Weather

Lat: 39.11N, Lon: 82.61W
Wx Zone: OHZ083
Warning FLW WEATHER ALERT - (More Info. Click Here) Warning
Feedback

Coalton, OH Regional Weather

Expires:201905242200;;401555
ASUS41 KCLE 242112
RWRCLE
OHIO REGIONAL WEATHER ROUNDUP
NATIONAL WEATHER SERVICE WILMINGTON, OH
500 PM EDT FRI MAY 24 2019

NOTE: "FAIR" INDICATES FEW OR NO CLOUDS BELOW 12,000 FEET WITH NO
SIGNIFICANT WEATHER AND/OR OBSTRUCTIONS TO VISIBILITY.


OHZ036-037-039>041-045>050-054>059-063>069-073>076-082>088-242200-
  CENTRAL AND SOUTHEAST OHIO
  
CITY           SKY/WX    TMP DP  RH WIND       PRES   REMARKS
COLUMBUS       CLOUDY    80  58  46 N5        30.12S                  
OSU AIRPORT    FAIR      78  61  55 VRB3      30.13S                  
BOLTON FIELD   SUNNY     79  63  57 SE5       30.14R                  
RICKENBACK AFB FAIR      78  59  52 CALM      30.13S                  
NEWARK         PTSUNNY   78  58  49 S3        30.13S                  
MARION         CLOUDY    74  54  49 VRB3      30.15R                  
LANCASTER      FAIR      79  63  57 CALM      30.13S                  
ZANESVILLE     CLOUDY    77  56  48 CALM      30.14R                  
NEW PHILLY     LGT RAIN  74  56  53 W5        30.15R                  
$$
  

SKY/WX - Weather  TMP - Temperature  DP - Dew Point  RH - Relative Humidity
WIND - Wind Direction/Speed PRES - Barometric Pressure VSB - Visibility
WCI - Wind Chill Index E13G22 Wind - East Wind 13 mph/Gusts of 22 mph